{"data":{"norad_id":50172,"intl_designator":"2021-125S","name":"STARLINK-3287","alt_names":[],"object_type":"PAYLOAD","status":"ACTIVE","operator":null,"country":"US","launch_date":"2021-12-18","launch_site_code":"AFWTR","launch_vehicle":null,"mission":null,"orbit_class":"UNKNOWN","rcs_meters":null,"size_class":null,"mass_kg":null,"dimensions":null,"purposes":["comms"],"wikipedia_slug":null,"has_3d_model":false,"image_url":null,"decayed_at":null,"tle_current":{"epoch":"2026-09-19T23:35:31.649280Z","epoch_age_seconds":89402,"freshness":"FRESH","line1":"1 50172U 21125S   26262.98300520  .00000004  00000+0  11250-4 0  9997","line2":"2 50172  53.1607  85.7900 0001273  83.9092 276.2056 15.34391631266112","mean_motion":15.34391631,"eccentricity":0.0001273,"inclination_deg":53.1607,"raan_deg":85.79,"arg_perigee_deg":83.9092,"mean_anomaly_deg":276.2056,"bstar":1.125e-5,"rev_number":26611,"period_min":93.848269953188,"perigee_km":461.85727262274,"apogee_km":463.59895688096,"semimajor_km":6840.8651147519,"source":"CELESTRAK","updated_at":"2026-09-20T09:00:39.415056Z"}}}